Weather in Sokolovka

Russia / Primorsky Krai     44°07′09″N   133°52′00″E
temp.,
°C
wind,
m/s
gust,
m/s
humid.,
%
clouds,
%
prec.,
mm/h
press.,
hPa
HPBL,
m
21 january, thu
thu2101:00−10s349296 0.0 102285
04:00−9sw3128978 0.0 1021290
07:00−9sw39900 0.0 1021214
10:00−5w412861 0.0 1022642
13:00−2wnw588351 0.0 1021900
16:00−4nw368455 0.1 1020849
19:00−9nnw1299100 0.1 102227
22:00−13sw0192100 0.1 102221
22 january, fri
fri2201:00−15ssw018567 0.0 102220
04:00−17sse018533 0.0 102120
07:00−18nnw118962 0.0 102220
10:00−15nw119470 0.0 102437
13:00−10nnw237714 0.0 1025501
16:00−10nnw24787 0.0 1024653
19:00−17sw01930 0.0 102720
22:00−18s12910 0.0 102920
23 january, sat
sat2301:00−19s12860 0.0 102920
04:00−19s11820 0.0 102920
07:00−20sse11840 0.0 103020
10:00−16sse11830 0.0 103141
13:00−9n11700 0.0 1029447
16:00−9n11730 0.0 1028398
19:00−16sse11880 0.0 102920
22:00−16sse22880 0.0 103020
24 january, sun
sun2401:00−15sse12830 0.0 103020
04:00−14s22770 0.0 102921
07:00−14sse12720 0.0 102820
10:00−9sse11700 0.0 102939
13:000wnw01670 0.0 1028242
16:00−2n11800 0.0 1027224
19:00−9se01880 0.0 102921
22:00−9sse11880 0.0 103021
25 january, mon
mon2501:00−10s11820 0.0 103021
04:00−11sse11770 0.0 103021
07:00−11sse12730 0.0 103021
10:00−7se11740 0.0 103130
13:00+1ese01760 0.0 1029199
16:00+1nne11920 0.0 1028104
19:00−4sse22890 0.0 102822
22:00−6sse338441 0.0 102741